Buffalo, MN

7:11 PM CDT on September 20, 2017 (GMT -0500)
Buffalo

Weather History for KCFE - November, 2013

Change the Weather History Date:

Tuesday, November 19, 2013

  Actual Average (KMIC) Record (KMIC)
Temperature  
Mean Temperature 33 °F -  
Max Temperature 46 °F 38 °F 59 °F (2012)
Min Temperature 20 °F 24 °F 15 °F (2006)
Degree Days  
Heating Degree Days 32    
Moisture  
Dew Point 24 °F    
Average Humidity 66    
Maximum Humidity 89    
Minimum Humidity 45    
Precipitation  
Precipitation 0.00 in - - ()
Sea Level Pressure  
Sea Level Pressure 30.04 in    
Wind  
Wind Speed 7 mph (SE)    
Max Wind Speed 18 mph    
Max Gust Speed 29 mph    
Visibility 10 miles    
Events      
Averages and records for this station are not official NWS values.
T = Trace of Precipitation, MM = Missing Value Source: NWS Daily Summary

Daily Weather History Graph

Daily Weather History Graph

Search for Another Location

Airport or City:

Trip Planner

Search our weather history database for the weather conditions in past years. The results will help you decide how hot, cold, wet, or windy it might be!

Date:

Astronomy

Nov. 19, 2013 Rise Set
Actual Time 7:19 AM CST 4:42 PM CST
Civil Twilight 6:46 AM CST 5:14 PM CST
Nautical Twilight 6:10 AM CST 5:50 PM CST
Astronomical Twilight 5:35 AM CST 6:25 PM CST
Moon 6:33 PM CST (11/19) 8:59 AM CST (11/19)
Length of Visible Light 10h 27m
Length of Day
9h 22m
Waning Gibbous, 96% of the Moon is Illuminated
Nov 19
Waning Gibbous
Nov 25
Last Quarter
Dec 2
New
Dec 9
First Quarter
Dec 17
Full

Hourly Weather History & Observations

Time (CST) Temp. Windchill Dew Point Humidity Pressure Visibility Wind Dir Wind Speed Gust Speed Precip Events Conditions
12:16 AM 21.4 °F - 17.6 °F 85% 30.24 in 10.0 mi Calm Calm - N/A   Clear
12:36 AM 21.4 °F - 17.8 °F 86% 30.25 in 10.0 mi Calm Calm - N/A   Clear
12:55 AM 21.2 °F - 17.6 °F 86% 30.24 in 10.0 mi Calm Calm - N/A   Clear
1:16 AM 20.8 °F - 17.6 °F 87% 30.24 in 10.0 mi Calm Calm - N/A   Clear
1:36 AM 20.3 °F - 17.4 °F 89% 30.24 in 10.0 mi Calm Calm - N/A   Clear
1:55 AM 21.0 °F - 17.8 °F 87% 30.24 in 10.0 mi Calm Calm - N/A   Clear
2:16 AM 20.7 °F 14.2 °F 17.6 °F 88% 30.23 in 10.0 mi ENE 4.6 mph - N/A   Clear
2:36 AM 22.1 °F 15.9 °F 18.7 °F 87% 30.23 in 10.0 mi East 4.6 mph - N/A   Clear
2:55 AM 21.9 °F 17.2 °F 18.5 °F 87% 30.23 in 10.0 mi East 3.5 mph - N/A   Clear
3:16 AM 22.8 °F 18.2 °F 19.0 °F 85% 30.23 in 10.0 mi East 3.5 mph - N/A   Clear
3:36 AM 22.6 °F 16.5 °F 19.0 °F 86% 30.23 in 10.0 mi East 4.6 mph - N/A   Clear
3:56 AM 23.2 °F 17.2 °F 19.4 °F 85% 30.21 in 10.0 mi East 4.6 mph - N/A   Clear
4:16 AM 23.4 °F 16.2 °F 19.2 °F 84% 30.21 in 10.0 mi East 5.8 mph - N/A   Clear
4:36 AM 23.0 °F 14.7 °F 19.0 °F 85% 30.21 in 10.0 mi East 6.9 mph - N/A   Clear
4:55 AM 23.0 °F 15.8 °F 19.0 °F 85% 30.20 in 10.0 mi East 5.8 mph - N/A   Clear
5:16 AM 23.0 °F 17.0 °F 19.0 °F 85% 30.20 in 10.0 mi East 4.6 mph - N/A   Clear
5:36 AM 23.0 °F 14.7 °F 19.2 °F 85% 30.19 in 10.0 mi East 6.9 mph - N/A   Clear
5:56 AM 23.0 °F 13.1 °F 19.2 °F 85% 30.18 in 10.0 mi East 9.2 mph - N/A   Clear
6:16 AM 23.7 °F 14.7 °F 19.8 °F 85% 30.18 in 10.0 mi East 8.1 mph - N/A   Clear
6:36 AM 23.7 °F 15.6 °F 19.8 °F 85% 30.17 in 10.0 mi East 6.9 mph - N/A   Clear
6:56 AM 24.1 °F 15.2 °F 19.9 °F 84% 30.16 in 10.0 mi East 8.1 mph - N/A   Clear
7:16 AM 24.4 °F 15.6 °F 20.3 °F 84% 30.16 in 10.0 mi East 8.1 mph - N/A   Clear
7:36 AM 25.3 °F 16.0 °F 20.8 °F 83% 30.15 in 10.0 mi East 9.2 mph - N/A   Clear
7:56 AM 26.2 °F 17.1 °F 21.4 °F 82% 30.14 in 10.0 mi East 9.2 mph - N/A   Clear
8:16 AM 26.6 °F 18.2 °F 21.4 °F 81% 30.14 in 10.0 mi East 8.1 mph - N/A   Clear
8:36 AM 27.5 °F 19.3 °F 22.1 °F 80% 30.13 in 10.0 mi East 8.1 mph - N/A   Clear
8:56 AM 29.3 °F 19.6 °F 22.8 °F 77% 30.12 in 10.0 mi East 11.5 mph - N/A   Clear
9:16 AM 30.9 °F 22.2 °F 23.4 °F 74% 30.11 in 10.0 mi East 10.4 mph - N/A   Clear
9:36 AM 32.4 °F 24.0 °F 23.0 °F 68% 30.11 in 10.0 mi ESE 10.4 mph 16.1 mph N/A   Clear
9:56 AM 34.3 °F 25.9 °F 23.0 °F 63% 30.10 in 10.0 mi SE 11.5 mph 19.6 mph N/A   Clear
10:16 AM 34.9 °F 27.7 °F 23.4 °F 63% 30.10 in 10.0 mi ESE 9.2 mph 17.3 mph N/A   Clear
10:35 AM 37.4 °F 29.3 °F 23.7 °F 58% 30.08 in 10.0 mi SE 12.7 mph 19.6 mph N/A   Clear
10:56 AM 37.4 °F 29.8 °F 23.7 °F 58% 30.07 in 10.0 mi SE 11.5 mph 20.7 mph N/A   Clear
11:16 AM 38.8 °F 31.2 °F 24.6 °F 57% 30.06 in 10.0 mi SE 12.7 mph 19.6 mph N/A   Clear
11:36 AM 41.2 °F 34.5 °F 25.0 °F 53% 30.05 in 10.0 mi SE 11.5 mph 19.6 mph N/A   Clear
11:56 AM 42.8 °F 36.6 °F 25.3 °F 50% 30.04 in 10.0 mi SE 11.5 mph 17.3 mph N/A   Clear
12:16 PM 44.8 °F 38.0 °F 25.7 °F 47% 30.02 in 10.0 mi SSE 15.0 mph 23.0 mph N/A   Clear
12:36 PM 45.1 °F 39.5 °F 26.1 °F 47% 30.01 in 10.0 mi SSE 11.5 mph 24.2 mph N/A   Clear
12:56 PM 46.4 °F 40.7 °F 26.2 °F 45% 29.99 in 10.0 mi SE 12.7 mph 24.2 mph N/A   Clear
1:15 PM 46.6 °F - 26.4 °F 45% 29.99 in 10.0 mi SSE 16.1 mph 24.2 mph N/A   Clear
1:36 PM 46.4 °F 40.7 °F 26.1 °F 45% 29.98 in 10.0 mi SE 12.7 mph 23.0 mph N/A   Clear
1:56 PM 46.4 °F 39.5 °F 26.4 °F 46% 29.97 in 10.0 mi SE 17.3 mph 24.2 mph N/A   Clear
2:15 PM 45.3 °F 38.4 °F 26.6 °F 48% 29.96 in 10.0 mi SE 16.1 mph 27.6 mph N/A   Clear
2:36 PM 45.1 °F 38.4 °F 27.0 °F 49% 29.94 in 10.0 mi SE 15.0 mph 24.2 mph N/A   Clear
2:56 PM 45.0 °F 39.7 °F 27.1 °F 50% 29.94 in 10.0 mi SE 10.4 mph 21.9 mph N/A   Clear
3:15 PM 45.1 °F 38.8 °F 27.5 °F 50% 29.93 in 10.0 mi SE 13.8 mph 21.9 mph N/A   Clear
3:36 PM 45.3 °F 39.7 °F 27.9 °F 51% 29.93 in 10.0 mi SE 11.5 mph 20.7 mph N/A   Clear
3:56 PM 45.0 °F 38.2 °F 28.2 °F 52% 29.92 in 10.0 mi SE 15.0 mph 28.8 mph N/A   Clear
4:15 PM 44.6 °F 38.4 °F 28.2 °F 53% 29.91 in 10.0 mi SE 12.7 mph 23.0 mph N/A   Clear
4:36 PM 44.6 °F 37.2 °F 28.0 °F 52% 29.90 in 10.0 mi SE 17.3 mph 26.5 mph N/A   Clear
4:56 PM 43.7 °F 36.6 °F 28.2 °F 54% 29.90 in 10.0 mi SE 15.0 mph 24.2 mph N/A   Clear
5:16 PM 43.7 °F 37.3 °F 28.4 °F 55% 29.90 in 10.0 mi SSE 12.7 mph 21.9 mph N/A   Clear
5:36 PM 43.2 °F 37.4 °F 28.4 °F 56% 29.90 in 10.0 mi SE 10.4 mph 24.2 mph N/A   Clear
5:56 PM 43.0 °F 35.7 °F 28.4 °F 56% 29.90 in 10.0 mi SE 15.0 mph 24.2 mph N/A   Clear
6:16 PM 43.0 °F 35.7 °F 28.4 °F 56% 29.89 in 10.0 mi SE 15.0 mph 23.0 mph N/A   Clear
6:36 PM 42.8 °F 36.6 °F 28.4 °F 57% 29.89 in 10.0 mi SE 11.5 mph 21.9 mph N/A   Clear
6:56 PM 42.8 °F 36.6 °F 28.6 °F 57% 29.89 in 10.0 mi SE 11.5 mph 23.0 mph N/A   Clear
7:16 PM 42.8 °F 35.4 °F 28.8 °F 58% 29.89 in 10.0 mi SSE 15.0 mph 26.5 mph N/A   Clear
7:35 PM 42.8 °F 35.8 °F 29.1 °F 58% 29.88 in 10.0 mi SE 13.8 mph 24.2 mph N/A   Clear
7:56 PM 42.8 °F 36.6 °F 29.1 °F 58% 29.88 in 10.0 mi SSE 11.5 mph 25.3 mph N/A   Clear
8:16 PM 42.6 °F 34.3 °F 29.3 °F 59% 29.88 in 10.0 mi SSE 18.4 mph 25.3 mph N/A   Clear
8:35 PM 42.3 °F 35.9 °F 29.3 °F 60% 29.88 in 10.0 mi SSE 11.5 mph 24.2 mph N/A   Clear
8:56 PM 42.3 °F 34.8 °F 29.3 °F 60% 29.88 in 10.0 mi SSE 15.0 mph 25.3 mph N/A   Clear
9:16 PM 42.8 °F 35.4 °F 29.3 °F 59% 29.88 in 10.0 mi SSE 15.0 mph 23.0 mph N/A   Clear
9:35 PM 42.8 °F 35.4 °F 29.3 °F 59% 29.88 in 10.0 mi SSE 15.0 mph 25.3 mph N/A   Clear
9:56 PM 42.3 °F 34.8 °F 29.3 °F 60% 29.88 in 10.0 mi SSE 15.0 mph 21.9 mph N/A   Clear
10:16 PM 42.6 °F 35.6 °F 29.3 °F 59% 29.88 in 10.0 mi SSE 13.8 mph 21.9 mph N/A   Clear
10:36 PM 42.8 °F 36.6 °F 29.7 °F 60% 29.87 in 10.0 mi SSE 11.5 mph 21.9 mph N/A   Clear
10:56 PM 43.2 °F 36.2 °F 29.7 °F 59% 29.87 in 10.0 mi SSE 13.8 mph 24.2 mph N/A   Scattered Clouds
11:16 PM 43.7 °F 36.3 °F 29.3 °F 57% 29.87 in 10.0 mi SSE 16.1 mph 26.5 mph N/A   Scattered Clouds
11:36 PM 44.1 °F 37.1 °F 29.3 °F 56% 29.87 in 10.0 mi SSE 15.0 mph 23.0 mph N/A   Scattered Clouds
11:56 PM 44.6 °F 38.1 °F 28.9 °F 54% 29.87 in 10.0 mi SSE 13.8 mph 20.7 mph N/A   Mostly Cloudy